This demonstration page uses our WeatherBlox Daily Observations layout. Learn more.

Left ArrowRight Arrow

34.74481, -87.66753

Hourly Observations for March 8, 2022

Temp ( °F °C ) Dew Point ( °F °C ) Humidity (%) Winds ( mph kmh ) Pressure ( in mb ) Visibility ( mi km ) Precip ( " mm )
12:53 am 00:53 Cloudy 44 6.7 35 1.7 71 71 N 8 13 30.18 1022 10 16 0.00 0.00
1:53 am 01:53 Cloudy 43 6.1 34 1.1 71 71 NNE 9 15 30.18 1022 10 16 0.00 0.00
2:53 am 02:53 Cloudy 43 6.1 34 1.1 71 71 NE 7 11 30.17 1022 10 16 0.00 0.00
3:53 am 03:53 Cloudy 42 5.6 33 0.6 71 71 NE 7 11 30.18 1022 10 16 0.00 0.00
4:53 am 04:53 Cloudy 42 5.6 32 0 68 68 NE 13 20 30.19 1022 10 16 0.00 0.00
5:53 am 05:53 Cloudy 41 5 31 -0.6 67 67 NE 10 17 30.19 1022 10 16 0.00 0.00
6:53 am 06:53 Cloudy 41 5 32 0 70 70 NE 12 19 30.20 1023 10 16 0.00 0.00
7:53 am 07:53 Cloudy 42 5.6 32 0 68 68 ENE 9 15 30.20 1023 10 16 0.00 0.00
8:53 am 08:53 Cloudy 43 6.1 33 0.6 68 68 NNE 12 19 30.18 1022 10 16 0.00 0.00
9:53 am 09:53 Cloudy 44 6.7 34 1.1 68 68 VRB 7 11 30.17 1022 10 16 0.00 0.00
10:53 am 10:53 Mostly Cloudy 47 8.3 35 1.7 63 63 N 7 11 30.14 1021 10 16 0.00 0.00
11:53 am 11:53 Mostly Cloudy 49 9.4 36 2.2 61 61 E 8 13 30.10 1019 10 16 0.00 0.00
12:53 pm 12:53 Cloudy 50 10 36 2.2 59 59 ENE 6 9 30.06 1018 10 16 0.00 0.00
1:53 pm 13:53 Sunny 50 10 37 2.8 61 61 E 7 11 30.01 1016 10 16 0.00 0.00
2:53 pm 14:53 Mostly Cloudy 51 10.6 37 2.8 59 59 E 5 7 30.00 1016 10 16 0.00 0.00
3:53 pm 15:53 Cloudy with Light Rain 50 10 38 3.3 63 63 ESE 6 9 30.00 1016 9 14 0.01 0.25
4:53 pm 16:53 Cloudy with Rain 47 8.3 42 5.6 83 83 Calm 30.00 1016 3 5 0.10 2.54
5:29 pm 17:29 Cloudy with Rain 47 8.3 43 6.1 86 86 Calm 30.02 1017 3 4 0.08 2.03
5:38 pm 17:38 Cloudy with Rain 47 8.3 43 6.1 86 86 NNE 3 6 30.02 1017 3 5 0.11 2.79
5:53 pm 17:53 Cloudy with Rain 46 7.8 43 6.1 89 89 N 6 9 29.99 1016 4 6 0.17 4.32
6:53 pm 18:53 Cloudy with Rain 46 7.8 42 5.6 86 86 ENE 8 13 29.98 1015 4 6 0.09 2.29
7:31 pm 19:31 Cloudy with Rain 45 7.2 43 6.1 93 93 E 8 13 29.97 1015 3 5 0.15 3.81
7:53 pm 19:53 Cloudy with Rain 45 7.2 42 5.6 90 90 ENE 7 11 29.97 1015 4 6 0.22 5.59
8:07 pm 20:07 Cloudy with Heavy Rain 45 7.2 42 5.6 90 90 ENE 7 11 29.97 1015 3 5 0.06 1.52
8:53 pm 20:53 Cloudy with Rain 45 7.2 42 5.6 90 90 ENE 9 15 29.93 1014 4 6 0.17 4.32
9:01 pm 21:01 Cloudy with Rain 45 7.2 42 5.6 90 90 ENE 9 15 29.93 1014 4 6 0.03 0.76
9:53 pm 21:53 Cloudy with Light Rain 45 7.2 42 5.6 90 90 NE 7 11 29.93 1014 7 11 0.06 1.52
10:53 pm 22:53 Cloudy 45 7.2 42 5.6 90 90 N 5 7 29.90 1013 9 14 0.03 0.76
11:48 pm 23:48 Cloudy with Light Rain 45 7 41 5 87 87 N 6 9 29.88 1012 2 3 0.01 0.25
11:53 pm 23:53 Cloudy with Light Rain 44 6.7 41 5 89 89 N 6 9 29.88 1012 3 4 0.01 0.25

Powered by AerisWeather